Weather History for KWMC - March, 2013

Change the Weather History Date:

Wednesday, March 27, 2013

  Actual Average Record
Temperature  
Mean Temperature 48 °F 43 °F  
Max Temperature 65 °F 58 °F 78 °F (2015)
Min Temperature 31 °F 28 °F 9 °F (1972)
Degree Days  
Heating Degree Days 17 22  
Month to date heating degree days 645 652  
Since 1 July heating degree days 5411 5241  
Cooling Degree Days 0 0  
Month to date cooling degree days 0 0  
Year to date cooling degree days 0 0  
Moisture  
Dew Point 23 °F    
Average Humidity 42    
Maximum Humidity 64    
Minimum Humidity 19    
Precipitation  
Precipitation 0.00 in 0.03 in 0.50 in (1883)
Month to date precipitation 0.25 0.72  
Year to date precipitation 0.71 2.25  
Snow  
Snow 0.00 in 0.00 in 3.70 in (1945)
Month to date snowfall T 2.8  
Since 1 July snowfall 21.9 18.8  
Snow Depth 0.00 in    
Sea Level Pressure  
Sea Level Pressure 29.91 in    
Wind  
Wind Speed 5 mph (WSW)    
Max Wind Speed 18 mph    
Max Gust Speed 23 mph    
Visibility 10 miles    
Events      
T = Trace of Precipitation, MM = Missing Value Source: NWS Daily Summary

Daily Weather History Graph

Daily Weather History Graph

Search for Another Location

Airport or City:

Trip Planner

Search our weather history database for the weather conditions in past years. The results will help you decide how hot, cold, wet, or windy it might be!

Date:

Astronomy

Mar. 27, 2013 Rise Set
Actual Time 6:42 AM PDT 7:11 PM PDT
Civil Twilight 6:14 AM PDT 7:38 PM PDT
Nautical Twilight 5:42 AM PDT 8:11 PM PDT
Astronomical Twilight 5:09 AM PDT 8:44 PM PDT
Moon 8:00 PM PDT (3/27) 6:35 AM PDT (3/27)
Length of Visible Light 13h 23m
Length of Day
12h 28m
Full, 100% of the Moon is Illuminated
Mar 27
Full
Apr 2
Last Quarter
Apr 10
New
Apr 18
First Quarter
Apr 25
Full

Hourly Weather History & Observations

Time (PDT) Temp. Windchill Dew Point Humidity Pressure Visibility Wind Dir Wind Speed Gust Speed Precip Events Conditions
12:56 AM 34.0 °F 31.0 °F 23.0 °F 64% 29.92 in 10.0 mi ESE 3.5 mph - N/A   Mostly Cloudy
1:56 AM 35.1 °F 31.0 °F 23.0 °F 61% 29.91 in 10.0 mi ESE 4.6 mph - N/A   Overcast
2:56 AM 35.1 °F - 24.1 °F 64% 29.91 in 10.0 mi Calm Calm - N/A   Overcast
3:56 AM 35.1 °F - 23.0 °F 61% 29.91 in 10.0 mi Calm Calm - N/A   Overcast
4:56 AM 35.1 °F - 24.1 °F 64% 29.91 in 10.0 mi Calm Calm - N/A   Overcast
5:56 AM 35.1 °F - 24.1 °F 64% 29.92 in 10.0 mi Calm Calm - N/A   Overcast
6:56 AM 35.1 °F - 24.1 °F 64% 29.94 in 10.0 mi Calm Calm - N/A   Mostly Cloudy
7:56 AM 39.9 °F - 27.0 °F 60% 29.95 in 10.0 mi Calm Calm - N/A   Overcast
8:56 AM 45.0 °F - 28.9 °F 53% 29.94 in 10.0 mi Calm Calm - N/A   Overcast
9:56 AM 53.1 °F - 28.9 °F 40% 29.95 in 10.0 mi West 5.8 mph - N/A   Scattered Clouds
10:56 AM 55.9 °F - 26.1 °F 32% 29.95 in 10.0 mi Variable 4.6 mph - N/A   Partly Cloudy
11:56 AM 57.0 °F - 25.0 °F 29% 29.94 in 10.0 mi SW 8.1 mph - N/A   Mostly Cloudy
12:56 PM 61.0 °F - 24.1 °F 24% 29.92 in 10.0 mi SW 9.2 mph 19.6 mph N/A   Clear
1:56 PM 62.1 °F - 21.9 °F 21% 29.89 in 10.0 mi West 11.5 mph 21.9 mph N/A   Clear
2:56 PM 63.0 °F - 21.9 °F 21% 29.88 in 10.0 mi West 6.9 mph - N/A   Clear
3:56 PM 63.0 °F - 21.0 °F 20% 29.86 in 10.0 mi Variable 6.9 mph - N/A   Clear
4:56 PM 63.0 °F - 21.0 °F 20% 29.86 in 10.0 mi WNW 6.9 mph - N/A   Scattered Clouds
5:56 PM 63.0 °F - 19.9 °F 19% 29.86 in 10.0 mi WSW 10.4 mph - N/A   Clear
6:56 PM 57.0 °F - 19.9 °F 24% 29.88 in 10.0 mi WSW 5.8 mph - N/A   Clear
7:56 PM 46.0 °F 43.1 °F 21.0 °F 37% 29.91 in 10.0 mi WNW 5.8 mph - N/A   Clear
8:56 PM 48.9 °F - 24.1 °F 38% 29.91 in 10.0 mi Calm Calm - N/A   Clear
9:56 PM 44.1 °F 40.8 °F 24.1 °F 45% 29.92 in 10.0 mi West 5.8 mph - N/A   Clear
10:56 PM 39.0 °F 36.8 °F 21.0 °F 49% 29.94 in 10.0 mi North 3.5 mph - N/A   Clear
11:56 PM 32.0 °F 25.6 °F 19.0 °F 59% 29.96 in 10.0 mi SSE 6.9 mph - N/A   Clear